Hlavní strana
METAR-TAF:

METAR-TAF

Letiště :

Edgar County Airport

Paris, Illinois, Spojené státy americké

zeměpisná šířka: 39-42-01N, zeměpisná délka: 087-40-11W, výška: 199 m

Aktuální stav počasí

Zpráva byla vytvořena před 17 minutami, v 10:35 UTC
Severozápadní vítr 4 kt
Teplota -3°C
Vlhkost vzduchu 100%
Tlak 1027 hPa
Viditelnost: 6.4 km
Jasno
kouřmo

METAR: KPRG 251035Z AUTO 31004KT 4SM BR CLR M03/M03 A3033 RMK AO2 T10261026

Čas: 04:52 (10:52 UTC)


TAF: chybějící

Stav a předpovědi počasí z více než 4 000 letišť (zprávy METAR a TAF).

Červené a žluté tečky na mapě představují dostupné meteorologické stanice.

Když kurzor umístíte na tečku, zobrazí se název stanice.

Pak kliknutím zobrazíte stav a předpověď počasí.

Chcete-li změnit mapu, kliknutím na zelené tlačítko se znaménkem +mapu přiblížíte, kliknutím na zelené tlačítko se znaménkem – mapu oddálíte a kliknutím na zelené šipky přejdete na sousední mapy.


METAR-TAF: